Regional Weather Roundup
Issued by NWS Albany, NY

Home | Current Version | Previous Version | Text Only | Print | Product List | Glossary On
Versions: 1 2 3 4 5 6 7 8 9 10 11 12 13 14 15 16 17 18 19 20 21 22 23 24 25 26 27 28 29 30 31 32 33 34 35 36 37 38 39 40 41 42 43 44 45 46 47 48 49 50
000
ASUS41 KALY 200010
RWRALY

NEW YORK STATE HOURLY WEATHER ROUNDUP
NATIONAL WEATHER SERVICE ALBANY NY
800 PM EDT SUN OCT 19 2014

NOTE: "FAIR" INDICATES FEW OR NO CLOUDS BELOW 12,000 FEET WITH NO
SIGNIFICANT WEATHER AND/OR NO OBSTRUCTIONS TO VISIBILITY.

NYZ032-033-038>043-046>054-057>066-NYZ062>081-200100-
EAST


CITY           SKY/WX    TMP DP  RH WIND       PRES   REMARKS
ALBANY         MOCLDY    42  26  53 NW12G21   30.03R
GLENS FALLS    CLOUDY    42  24  49 NW12G20   30.02R
POUGHKEEPSIE   FAIR      43  26  51 NW8       30.04R
NEWBURGH       CLEAR     41  28  60 NW12      30.03R
MONTGOMERY     CLEAR     42  25  50 VRB3      30.03R
WHITE PLAINS   CLEAR     45  26  47 NW17G24   30.01R
ISLIP          PTCLDY    47  28  47 NW14      29.99R
NEW YORK CITY  PTCLDY    48  31  51 NW22G31   30.03R
CENTRAL PARK   CLEAR     47  26  44 CALM      30.06R
$$

NYZ005>009-017-018-044>046-055-056-200100-
CENTRAL


CITY           SKY/WX    TMP DP  RH WIND       PRES   REMARKS
FULTON         MOCLDY    41  31  67 SW6       30.05S
SYRACUSE       PTCLDY    42  30  62 W8        30.06S
ROME           PTCLDY    38  31  76 W6        30.07S WCI  33
ELMIRA         CLEAR     35  30  82 CALM      30.06R
BINGHAMTON     CLEAR     35  26  69 N6        30.04R WCI  30
MONTICELLO     MOCLDY    37  25  60 NW12      30.03R WCI  30
$$

NYZ026>034-041>043-200100-
NORTH


CITY           SKY/WX    TMP DP  RH WIND       PRES   REMARKS
WATERTOWN      CLOUDY    37  28  70 CALM      30.04S
FORT DRUM      NOT AVBL
MASSENA        CLOUDY    41  27  57 W8        30.03R
SARANAC LAKE   FLURRIES  32  24  72 VRB5      29.96R WCI  27
PLATTSBURGH    CLOUDY    40  26  57 W6        29.98R
$$

NYZ001>004-010>016-019>021-200100-
WEST


CITY           SKY/WX    TMP DP  RH WIND       PRES   REMARKS
NIAGARA FALLS  MOCLDY    43  34  70 SW10      30.04F
BUFFALO        MOCLDY    44  33  65 W7        30.04F
DUNKIRK        MOCLDY    43  36  76 S8        30.06F
JAMESTOWN      MOCLDY    39  30  70 W5        30.06S
WELLSVILLE     PTCLDY    35  26  69 W8        30.05S WCI  29
ROCHESTER      PTCLDY    39  32  76 CALM      30.06S
PENN YAN       CLOUDY    41  30  65 SW5       30.06S
$$

             KEY
       WCI = WIND CHILL INDEX
       VSB = VISIBILITY
       HX  = HEAT INDEX
$$


USA.gov is the U.S. government's official web portal to all federal, state and local government web resources and services.